Simultaneous Nadir Overpasses (SNOs) Predictions

Prediction of SNOs between AQUA and METOP-C Satellite Orbit:

Table of predicted SNOs for the next 14.0 days since TLE Epoch: 6/10/2023
Index Date (AQUA) Time (AQUA) Lat,Lon (AQUA) SZA (AQUA ) Date (METOP-C) Time (METOP-C) Lat,Lon (METOP-C) SZA (METOP-C ) Distance(km) Time Diff (sec)
1 06/11/2023 17:20:39 74.49, -84.28 51.35 06/11/2023 17:19:49 74.47, -84.30 51.33 2.96 50
2 06/11/2023 18:10:04 -74.57, 83.18 128.57 06/11/2023 18:10:29 -74.57, 83.30 128.58 3.69 25
3 06/14/2023 11:13:21 74.51, 7.53 51.21 06/14/2023 11:12:45 74.52, 7.59 51.22 1.69 36
4 06/14/2023 12:02:46 -74.59, 174.99 128.71 06/14/2023 12:03:26 -74.58, 175.08 128.73 2.96 40
5 06/17/2023 04:16:23 -73.84, -66.67 129.60 06/17/2023 04:15:18 -73.77, -69.84 129.58 98.58 65
6 06/17/2023 05:06:02 74.53, 99.35 51.12 06/17/2023 05:05:42 74.51, 99.33 51.11 2.53 20
7 06/17/2023 05:55:27 -74.60, -93.19 128.80 06/17/2023 05:56:23 -74.58, -93.15 128.83 2.63 56
8 06/19/2023 22:09:15 -74.46, 23.73 129.00 06/19/2023 22:08:02 -74.41, 23.48 129.05 9.82 73
9 06/19/2023 22:58:42 74.55,-168.83 51.09 06/19/2023 22:58:38 74.54,-168.83 51.08 0.48 4
10 06/19/2023 23:48:07 -74.62, -1.35 128.84 06/19/2023 23:49:19 -74.62, -1.28 128.84 2.13 72
11 06/22/2023 16:01:53 -74.47, 115.57 129.00 06/22/2023 16:00:56 -74.49, 115.45 128.97 3.90 57
12 06/22/2023 16:51:20 74.56, -76.99 51.10 06/22/2023 16:51:33 74.57, -77.00 51.11 0.89 13



Historial Predications of SNOs between AQUA and METOP-C
